Flight Track Log - Related Links

Times and Time Zones

All times are in EDT time to prevent confusion due to time zone crossing. See the EJA929 flight status page for this flight to view local times or setup timezone preferences in your user account.

Time Position Orientation Groundspeed Altitude Reporting Facility
EDT Latitude Longitude Course Direction KTS MPH feet Rate Location/Type
15:41 25.8017 -80.3069 287° West 186 214 900  Level Miami Center
15:42 25.8169 -80.3628 287° West 219 252 5,200 3,495 Climbing Miami Center
15:42 25.8386 -80.4211 292° West 257 296 6,900 1,778 Climbing Miami Center
15:43 25.9022 -80.4667 327° Northwest 286 329 8,400 1,550 Climbing Miami Center
15:44 25.9722 -80.5106 331° Northwest 328 377 10,000 750 Climbing Miami Center
15:45 26.0414 -80.5819 317° Northwest 372 428 9,900 -50 Descending Miami Center
15:46 26.1125 -80.6514 319° Northwest 386 444 9,900 50 Level Miami Center
15:47 26.1900 -80.7300 318° Northwest 386 444 10,000 50 Climbing Miami Center
15:48 26.2689 -80.8208 314° West 376 433 10,000  Level Miami Center
15:49 26.3419 -80.9042 314° West 371 427 10,000  Level Miami Center
15:50 26.3511 -81.0206 275° West 360 414 10,000  Level Miami Center
15:51 26.3542 -81.1342 272° West 366 421 10,000 -200 Level Miami Center
15:52 26.3511 -81.2314 268° West 343 395 9,600 -750 Descending Miami Center
15:53 26.3508 -81.3100 270° West 284 327 8,500 -1,850 Descending Miami Center
15:54 26.3483 -81.3933 268° West 268 308 5,900 -2,550 Descending Miami Center
15:55 26.3458 -81.4767 268° West 268 308 3,400 -1,450 Descending Miami Center
15:56 26.3475 -81.5556 271° West 268 308 3,000 -450 Descending Miami Center
15:57 26.3181 -81.6217 244° Southwest 246 283 2,500 -450 Descending Miami Center
15:58 26.2689 -81.6567 213° Southwest 230 265 2,100 -200 Descending Miami Center
15:59 26.2258 -81.6989 221° Southwest 216 249 2,100 -500 Level Miami Center
16:00 26.1869 -81.7392 223° Southwest 204 235 1,100 -1,000 Descending Miami Center
16:02 26.1500 -81.7667 241° Southwest  Level FlightAware Approximate
16:09 26.1524 -81.7756 241° Southwest  Level Estimated

Login

Don't have an account? Register now (free) for customized features, flight alerts, and more!